• In United Kingdom
  • List of Countries
  • For 7 days
  • Water Temperature
  • Satellite Maps
  • Weather Map
  • Weather Widgets
  • user-avatar
    Login

    Hourly Weather Campo Grande

    Today, 24 September, Monday

    Time Temperature Precipitation Wind Pressure Humidity
    00:00 +28°C° 0 mm 2 mps 709 mmHg 48%
    01:00 +28°C° 0 mm 2 mps 709 mmHg 49%
    02:00 +27°C° 0 mm 2 mps 709 mmHg 49%
    03:00 +27°C° 0 mm 2 mps 709 mmHg 49%
    04:00 +27°C° 0 mm 2 mps 709 mmHg 49%
    05:00 +26°C° 0 mm 2 mps 709 mmHg 50%
    06:00 +28°C° 0 mm 2 mps 709 mmHg 47%
    07:00 +30°C° 0 mm 3 mps 710 mmHg 44%
    08:00 +33°C° 0 mm 3 mps 711 mmHg 41%
    09:00 +34°C° 0 mm 3 mps 711 mmHg 36%
    10:00 +36°C° 0 mm 3 mps 711 mmHg 32%
    11:00 +38°C° 0 mm 3 mps 711 mmHg 27%
    12:00 +38°C° 0 mm 2 mps 711 mmHg 28%
    13:00 +37°C° 0 mm 2 mps 710 mmHg 29%
    14:00 +36°C° 0 mm 1 mps 709 mmHg 30%
    15:00 +35°C° 0 mm 1 mps 709 mmHg 32%
    16:00 +34°C° 0 mm 1 mps 709 mmHg 34%
    17:00 +32°C° 0 mm 0 mps 709 mmHg 36%
    18:00 +32°C° 0 mm 1 mps 709 mmHg 37%
    19:00 +31°C° 0 mm 1 mps 709 mmHg 37%
    20:00 +30°C° 0 mm 1 mps 709 mmHg 38%
    21:00 +30°C° 0 mm 1 mps 709 mmHg 38%
    22:00 +29°C° 0 mm 2 mps 709 mmHg 39%
    23:00 +28°C° 0 mm 2 mps 709 mmHg 40%

    Tomorrow, 25 September, Tuesday

    Time Temperature Precipitation Wind Pressure Humidity
    00:00 +28°C° 0 mm 2 mps 709 mmHg 41%
    01:00 +27°C° 0 mm 2 mps 708 mmHg 41%
    02:00 +27°C° 0 mm 2 mps 708 mmHg 42%
    03:00 +27°C° 0 mm 2 mps 708 mmHg 42%
    04:00 +26°C° 0 mm 2 mps 708 mmHg 42%
    05:00 +26°C° 0 mm 2 mps 708 mmHg 41%
    06:00 +28°C° 0 mm 3 mps 709 mmHg 39%
    07:00 +29°C° 0 mm 3 mps 709 mmHg 37%
    08:00 +32°C° 0 mm 4 mps 710 mmHg 35%
    09:00 +34°C° 0 mm 4 mps 710 mmHg 31%
    10:00 +36°C° 0 mm 4 mps 710 mmHg 28%
    11:00 +38°C° 0 mm 4 mps 710 mmHg 25%
    12:00 +40°C° 0 mm 4 mps 709 mmHg 24%
    13:00 +40°C° 0 mm 4 mps 708 mmHg 24%
    14:00 +39°C° 0 mm 3 mps 707 mmHg 23%
    15:00 +38°C° 0 mm 3 mps 707 mmHg 27%
    16:00 +36°C° 0 mm 2 mps 707 mmHg 30%
    17:00 +34°C° 0 mm 1 mps 706 mmHg 34%
    18:00 +33°C° 0 mm 1 mps 707 mmHg 35%
    19:00 +32°C° 0 mm 1 mps 707 mmHg 36%
    20:00 +31°C° 0 mm 1 mps 707 mmHg 37%
    21:00 +30°C° 0 mm 1 mps 707 mmHg 38%
    22:00 +30°C° 0 mm 1 mps 707 mmHg 38%
    23:00 +29°C° 0 mm 1 mps 707 mmHg 39%

    Day after tomorrow, 26 September, Wednesday

    Time Temperature Precipitation Wind Pressure Humidity
    00:00 +29°C° 0.1 mm 1 mps 707 mmHg 42%
    01:00 +28°C° 0.1 mm 1 mps 707 mmHg 44%
    02:00 +28°C° 0.1 mm 1 mps 706 mmHg 47%
    03:00 +27°C° 0 mm 1 mps 706 mmHg 47%
    04:00 +27°C° 0 mm 1 mps 706 mmHg 48%
    05:00 +27°C° 0 mm 1 mps 706 mmHg 49%
    06:00 +29°C° 0.2 mm 1 mps 707 mmHg 46%
    07:00 +31°C° 0.2 mm 1 mps 708 mmHg 44%
    08:00 +33°C° 0.2 mm 1 mps 709 mmHg 41%
    09:00 +35°C° 0 mm 2 mps 709 mmHg 37%
    10:00 +37°C° 0 mm 3 mps 709 mmHg 32%
    11:00 +39°C° 0 mm 3 mps 709 mmHg 28%
    12:00 +39°C° 0 mm 3 mps 708 mmHg 28%
    13:00 +39°C° 0 mm 3 mps 707 mmHg 29%
    14:00 +38°C° 0 mm 2 mps 706 mmHg 29%
    15:00 +37°C° 0 mm 2 mps 706 mmHg 31%
    16:00 +35°C° 0 mm 1 mps 706 mmHg 34%
    17:00 +34°C° 0 mm 1 mps 706 mmHg 36%
    18:00 +32°C° 0.2 mm 1 mps 707 mmHg 42%
    19:00 +31°C° 0.2 mm 2 mps 707 mmHg 48%
    20:00 +29°C° 0.2 mm 2 mps 708 mmHg 53%
    21:00 +28°C° 0.1 mm 3 mps 708 mmHg 59%
    22:00 +27°C° 0.1 mm 4 mps 708 mmHg 64%
    23:00 +26°C° 0.1 mm 5 mps 708 mmHg 70%

    27 September, Thursday

    Time Temperature Precipitation Wind Pressure Humidity
    00:00 +26°C° 0 mm 5 mps 708 mmHg 71%
    01:00 +26°C° 0 mm 5 mps 707 mmHg 72%
    02:00 +25°C° 0 mm 5 mps 707 mmHg 72%
    03:00 +25°C° 0.3 mm 5 mps 707 mmHg 73%
    04:00 +23°C° 0.3 mm 5 mps 707 mmHg 74%
    05:00 +23°C° 0.3 mm 5 mps 707 mmHg 74%
    06:00 +25°C° 0.1 mm 5 mps 708 mmHg 70%
    07:00 +27°C° 0.1 mm 5 mps 709 mmHg 65%
    08:00 +28°C° 0.1 mm 5 mps 710 mmHg 60%
    09:00 +29°C° 0 mm 4 mps 710 mmHg 56%
    10:00 +30°C° 0 mm 3 mps 710 mmHg 53%
    11:00 +33°C° 0 mm 3 mps 710 mmHg 49%
    12:00 +32°C° 0 mm 2 mps 709 mmHg 47%
    13:00 +34°C° 0 mm 2 mps 708 mmHg 45%
    14:00 +33°C° 0 mm 1 mps 707 mmHg 44%
    15:00 +34°C° 0 mm 2 mps 707 mmHg 46%
    16:00 +32°C° 0 mm 2 mps 707 mmHg 48%
    17:00 +31°C° 0 mm 2 mps 707 mmHg 50%
    18:00 +29°C° 0.3 mm 3 mps 708 mmHg 57%
    19:00 +28°C° 0.3 mm 4 mps 708 mmHg 64%
    20:00 +26°C° 0.3 mm 5 mps 709 mmHg 71%
    21:00 +26°C° 0.5 mm 5 mps 709 mmHg 73%
    22:00 +25°C° 0.5 mm 5 mps 709 mmHg 76%
    23:00 +23°C° 0.5 mm 6 mps 709 mmHg 78%

    28 September, Friday

    Time Temperature Precipitation Wind Pressure Humidity
    00:00 +23°C° 0.6 mm 5 mps 709 mmHg 80%
    01:00 +23°C° 0.6 mm 4 mps 709 mmHg 81%
    02:00 +24°C° 0.6 mm 3 mps 708 mmHg 83%
    03:00 +24°C° 0 mm 3 mps 708 mmHg 83%
    04:00 +24°C° 0 mm 3 mps 708 mmHg 83%
    05:00 +24°C° 0 mm 3 mps 708 mmHg 83%
    06:00 +25°C° 0 mm 2 mps 709 mmHg 76%
    07:00 +27°C° 0 mm 2 mps 709 mmHg 69%
    08:00 +29°C° 0 mm 2 mps 710 mmHg 62%
    09:00 +29°C° 1 mm 3 mps 710 mmHg 62%
    10:00 +29°C° 1 mm 4 mps 710 mmHg 61%
    11:00 +29°C° 1 mm 5 mps 710 mmHg 61%
    12:00 +29°C° 1.3 mm 5 mps 710 mmHg 60%
    13:00 +29°C° 1.3 mm 5 mps 710 mmHg 59%
    14:00 +29°C° 1.3 mm 4 mps 709 mmHg 58%
    15:00 +28°C° 0.4 mm 4 mps 709 mmHg 60%
    16:00 +28°C° 0.4 mm 3 mps 709 mmHg 62%
    17:00 +27°C° 0.4 mm 2 mps 708 mmHg 64%
    18:00 +26°C° 0.8 mm 2 mps 709 mmHg 69%
    19:00 +25°C° 0.8 mm 3 mps 709 mmHg 73%
    20:00 +24°C° 0.8 mm 3 mps 709 mmHg 78%
    21:00 +24°C° 0.3 mm 2 mps 709 mmHg 78%
    22:00 +24°C° 0.3 mm 2 mps 709 mmHg 79%
    23:00 +23°C° 0.3 mm 1 mps 709 mmHg 79%

    29 September, Saturday

    Time Temperature Precipitation Wind Pressure Humidity
    00:00 +23°C° 0 mm 2 mps 709 mmHg 80%
    01:00 +23°C° 0 mm 2 mps 708 mmHg 81%
    02:00 +23°C° 0 mm 2 mps 708 mmHg 82%
    03:00 +23°C° 0 mm 2 mps 708 mmHg 82%
    04:00 +23°C° 0 mm 2 mps 708 mmHg 81%
    05:00 +23°C° 0 mm 2 mps 709 mmHg 81%
    06:00 +24°C° 0 mm 2 mps 709 mmHg 78%
    07:00 +25°C° 0 mm 2 mps 710 mmHg 74%
    08:00 +26°C° 0 mm 3 mps 710 mmHg 71%
    09:00 +28°C° 0 mm 3 mps 710 mmHg 64%
    10:00 +30°C° 0 mm 3 mps 710 mmHg 57%
    11:00 +33°C° 0 mm 3 mps 710 mmHg 50%
    12:00 +32°C° 0 mm 2 mps 710 mmHg 46%
    13:00 +34°C° 0 mm 2 mps 709 mmHg 43%
    14:00 +35°C° 0 mm 2 mps 709 mmHg 39%
    15:00 +33°C° 0 mm 1 mps 708 mmHg 43%
    16:00 +32°C° 0 mm 1 mps 708 mmHg 46%
    17:00 +31°C° 0 mm 1 mps 708 mmHg 50%
    18:00 +30°C° 0 mm 1 mps 708 mmHg 52%
    19:00 +29°C° 0 mm 2 mps 708 mmHg 55%
    20:00 +28°C° 0 mm 2 mps 708 mmHg 57%
    21:00 +27°C° 0 mm 2 mps 708 mmHg 59%
    22:00 +27°C° 0 mm 2 mps 708 mmHg 62%
    23:00 +26°C° 0 mm 2 mps 708 mmHg 64%
    Show more